1507338000.04,48481,11.56,73028.8,-5.79,-6.43,-6.43,0,*5A
1507338001.26,48482,11.56,73032.0,-5.77,-6.47,-6.35,0,*52
1507338002.48,48483,11.56,73032.3,-5.77,-6.43,-6.47,0,*52
1507338003.68,48484,11.56,73030.8,-5.79,-6.43,-6.43,0,*5F
1507338004.89,48485,11.5,73028.5,-5.79,-6.43,-6.35,0,*5F
1507338006.11,48486,11.56,73030.3,-5.77,-6.43,-6.43,0,*53
1507338007.33,48487,11.56,73036.5,-5.77,-6.43,-6.47,0,*56
1507338008.54,48488,11.5,73032.8,-5.79,-6.43,-6.43,0,*53
1507338009.76,48489,11.56,73034.0,-5.77,-6.43,-6.43,0,*5C
1507338010.96,48490,11.56,73032.5,-5.79,-6.43,-6.43,0,*5A
1507338012.19,48491,11.56,73036.0,-5.77,-6.43,-6.47,0,*51
1507338013.41,48492,11.56,73038.3,-5.77,-6.43,-6.47,0,*52
1507338014.63,48493,11.56,73036.8,-5.77,-6.43,-6.43,0,*57
1507338015.86,48494,11.56,73036.5,-5.77,-6.43,-6.43,0,*50
1507338017.08,48495,11.5,73034.5,-5.77,-6.47,-6.35,0,*54
1507338018.28,48496,11.56,73036.3,-5.79,-6.43,-6.43,0,*5C
1507338019.5,48497,11.56,73034.8,-5.77,-6.43,-6.43,0,*53
1507338020.73,48498,11.56,73038.3,-5.77,-6.43,-6.43,0,*5C
1507338021.95,48499,11.56,73036.8,-5.77,-6.43,-6.43,0,*5D
1507338023.18,48500,11.56,73036.8,-5.77,-6.43,-6.43,0,*5C
1507338024.4,48501,11.56,73036.5,-5.77,-6.43,-6.35,0,*5C
1507338025.6,48502,11.56,73036.8,-5.79,-6.43,-6.43,0,*50
1507338026.81,48503,11.5,73034.8,-5.79,-6.35,-6.35,0,*51
1507338028.01,48504,11.56,73034.8,-5.79,-6.43,-6.35,0,*57
1507338029.23,48505,11.5,73028.0,-5.77,-6.43,-6.35,0,*58
1507338030.46,48506,11.56,73034.0,-5.77,-6.43,-6.35,0,*5B
1507338031.66,48507,11.56,73034.3,-5.79,-6.43,-6.43,0,*55
1507338032.89,48508,11.5,73030.3,-5.77,-6.35,-6.35,0,*54
1507338034.09,48509,11.56,73034.0,-5.79,-6.43,-6.35,0,*5A
1507338035.29,48510,11.56,73034.0,-5.79,-6.35,-6.35,0,*53
1507338036.52,48511,11.56,73034.0,-5.77,-6.43,-6.35,0,*5D
1507338037.74,48512,11.56,73030.5,-5.77,-6.31,-6.35,0,*5B
1507338038.95,48513,11.56,73034.0,-5.79,-6.35,-6.35,0,*50
1507338040.15,48514,11.56,73034.0,-5.79,-6.43,-6.31,0,*52
1507338041.38,48515,11.56,73032.3,-5.77,-6.43,-6.35,0,*59
1507338042.6,48516,11.56,73034.5,-5.77,-6.31,-6.43,0,*5E
1507338043.83,48517,11.56,73036.8,-5.77,-6.35,-6.31,0,*5E
1507338045.06,48518,11.56,73036.8,-5.77,-6.35,-6.43,0,*54
1507338046.26,48519,11.56,73032.3,-5.79,-6.35,-6.35,0,*5A
1507338047.49,48520,11.56,73034.8,-5.77,-6.35,-6.43,0,*5F
1507338048.72,48521,11.56,73030.3,-5.77,-6.43,-6.43,0,*5F
1507338049.92,48522,11.56,73030.3,-5.79,-6.43,-6.35,0,*53
1507338051.12,48523,11.56,73030.3,-5.79,-6.35,-6.31,0,*57
1507338052.35,48524,11.56,73030.5,-5.77,-6.35,-6.35,0,*5A
1507338053.58,48525,11.56,73032.3,-5.77,-6.35,-6.43,0,*5A
1507338054.8,48526,11.56,73032.8,-5.77,-6.31,-6.35,0,*5C
1507338056.03,48527,11.56,73034.0,-5.77,-6.35,-6.31,0,*5D
1507338057.24,48528,11.56,73036.5,-5.79,-6.35,-6.35,0,*58
1507338058.47,48529,11.56,73036.5,-5.77,-6.35,-6.35,0,*57
1507338059.67,48530,11.5,73038.3,-5.79,-6.31,-6.35,0,*55
1507338060.87,48531,11.56,73036.8,-5.79,-6.35,-6.35,0,*50
1507338062.1,48532,11.56,73036.3,-5.77,-6.35,-6.35,0,*5D
1507338063.33,48533,11.56,73038.0,-5.77,-6.35,-6.35,0,*5C
1507338064.53,48534,11.56,73038.3,-5.79,-6.31,-6.31,0,*55
1507338065.74,48535,11.56,73036.8,-5.79,-6.43,-6.35,0,*55
1507338066.94,48536,11.56,73036.0,-5.79,-6.35,-6.35,0,*57
1507338068.14,48537,11.56,73038.5,-5.79,-6.43,-6.35,0,*57
1507338069.35,48538,11.56,73036.8,-5.79,-6.35,-6.35,0,*59
1507338070.58,48539,11.56,73038.5,-5.77,-6.35,-6.35,0,*56
1507338071.8,48540,11.56,73040.3,-5.77,-6.31,-6.35,0,*5C
1507338073.03,48541,11.5,73038.0,-5.77,-6.35,-6.31,0,*5D
1507338074.25,48542,11.56,73042.5,-5.77,-6.43,-6.35,0,*5B
1507338075.46,48543,11.56,73040.5,-5.79,-6.35,-6.35,0,*55
1507338076.69,48544,11.5,73038.3,-5.77,-6.35,-6.35,0,*5C
1507338077.92,48545,11.56,73038.8,-5.77,-6.35,-6.31,0,*59
1507338079.14,48546,11.56,73042.3,-5.77,-6.31,-6.35,0,*5A
1507338080.37,48547,11.56,73044.3,-5.77,-6.35,-6.35,0,*5F
1507338081.57,48548,11.56,73046.3,-5.79,-6.43,-6.35,0,*5F
1507338082.78,48549,11.56,73040.5,-5.79,-6.43,-6.31,0,*5A
1507338083.98,48550,11.56,73042.3,-5.79,-6.35,-6.35,0,*57
1507338085.19,48551,11.56,73046.0,-5.79,-6.35,-6.35,0,*56
1507338086.39,48552,11.56,73044.0,-5.79,-6.35,-6.31,0,*51
1507338087.62,48553,11.56,73042.3,-5.77,-6.43,-6.31,0,*5F
1507338088.85,48554,11.56,73042.0,-5.77,-6.35,-6.31,0,*59
1507338090.08,48555,11.56,73040.3,-5.77,-6.31,-6.35,0,*58
1507338091.3,48556,11.56,73038.8,-5.77,-6.35,-6.35,0,*5F
1507338092.51,48557,11.56,73040.5,-5.79,-6.35,-6.35,0,*50
1507338093.71,48558,11.56,73038.0,-5.79,-6.43,-6.35,0,*5E
1507338094.93,48559,11.56,73038.0,-5.77,-6.43,-6.43,0,*50
1507338096.16,48560,11.56,73038.0,-5.77,-6.43,-6.35,0,*5B
1507338097.38,48561,11.56,73036.0,-5.77,-6.43,-6.35,0,*5A
1507338098.61,48562,11.5,73034.0,-5.77,-6.43,-6.43,0,*58
1507338099.83,48563,11.56,73036.3,-5.77,-6.43,-6.43,0,*59
1507338101.06,48564,11.56,73038.0,-5.77,-6.43,-6.35,0,*5F
1507338102.28,48565,11.56,73034.3,-5.77,-6.43,-6.35,0,*5E
1507338103.48,48566,11.56,73034.5,-5.79,-6.43,-6.35,0,*53
1507338104.7,48567,11.56,73028.3,-5.77,-6.47,-6.35,0,*58
1507338105.93,48568,11.56,73030.3,-5.77,-6.43,-6.35,0,*53
1507338107.15,48569,11.56,73030.0,-5.77,-6.43,-6.43,0,*53
1507338108.38,48570,11.56,73028.8,-5.77,-6.35,-6.47,0,*5E
1507338109.61,48571,11.56,73028.3,-5.77,-6.35,-6.43,0,*5B
1507338110.81,48572,11.56,73026.0,-5.79,-6.43,-6.35,0,*56
1507338112.01,48573,11.56,73026.5,-5.79,-6.43,-6.35,0,*57
1507338113.24,48574,11.56,73026.0,-5.77,-6.35,-6.35,0,*5F
1507338114.44,48575,11.56,73022.5,-5.79,-6.35,-6.35,0,*50
1507338115.67,48576,11.56,73028.8,-5.77,-6.47,-6.35,0,*58
1507338116.89,48577,11.56,73032.0,-5.77,-6.47,-6.35,0,*59
1507338118.11,48578,11.56,73028.8,-5.77,-6.43,-6.47,0,*57
1507338119.34,48579,11.56,73024.0,-5.77,-6.43,-6.35,0,*53
1507338120.56,48580,11.56,73030.5,-5.77,-6.47,-6.43,0,*50
1507338121.78,48581,11.56,73038.0,-5.77,-6.47,-6.35,0,*50
1507338123.01,48582,11.56,73034.3,-5.77,-6.43,-6.35,0,*57
1507338124.23,48583,11.56,73034.0,-5.77,-6.43,-6.43,0,*57
1507338125.46,48584,11.56,73028.8,-5.77,-6.43,-6.35,0,*51
1507338126.66,48585,11.56,73034.8,-5.79,-6.43,-6.35,0,*5E
1507338127.88,48586,11.56,73034.0,-5.77,-6.43,-6.35,0,*53
1507338129.08,48587,11.56,73032.8,-5.79,-6.43,-6.43,0,*5D
1507338130.31,48588,11.56,73038.3,-5.77,-6.47,-6.35,0,*59
1507338131.51,48589,11.56,73038.0,-5.79,-6.43,-6.35,0,*52
1507338132.73,48590,11.56,73038.8,-5.77,-6.47,-6.31,0,*54
1507338133.93,48591,11.56,73038.0,-5.79,-6.43,-6.35,0,*5B
1507338135.16,48592,11.56,73032.3,-5.77,-6.43,-6.35,0,*56
1507338136.38,48593,11.56,73032.8,-5.77,-6.43,-6.43,0,*56
1507338137.58,48594,11.56,73034.5,-5.79,-6.43,-6.43,0,*5F
1507338138.79,48595,11.56,73034.3,-5.79,-6.43,-6.43,0,*5E
1507338140.01,48596,11.56,73030.5,-5.77,-6.43,-6.35,0,*52
1507338141.23,48597,11.56,73028.0,-5.77,-6.43,-6.43,0,*52
1507338142.44,48598,11.56,73032.5,-5.79,-6.43,-6.43,0,*53
1507338143.66,48599,11.56,73032.5,-5.77,-6.43,-6.35,0,*5D
1507338144.88,48600,11.56,73028.8,-5.77,-6.47,-6.43,0,*5B
1507338146.08,48601,11.56,73034.0,-5.79,-6.43,-6.47,0,*54
1507338147.28,48602,11.56,73026.3,-5.79,-6.43,-6.43,0,*53
1507338148.51,48603,11.56,73032.8,-5.77,-6.43,-6.43,0,*5C
1507338149.71,48604,11.56,73034.0,-5.79,-6.43,-6.47,0,*51
1507338150.94,48605,11.56,73030.3,-5.77,-6.35,-6.43,0,*5B
1507338152.16,48606,11.56,73028.8,-5.77,-6.47,-6.43,0,*5D
1507338153.36,48607,11.56,73024.5,-5.79,-6.43,-6.43,0,*56
1507338154.56,48608,11.56,73030.3,-5.79,-6.43,-6.43,0,*59
1507338155.76,48609,11.56,73026.3,-5.79,-6.43,-6.43,0,*58
1507338156.99,48610,11.56,73026.8,-5.77,-6.43,-6.43,0,*5E
1507338158.21,48611,11.56,73034.3,-5.77,-6.47,-6.47,0,*5F
1507338159.43,48612,11.56,73028.3,-5.77,-6.47,-6.35,0,*59
1507338160.65,48613,11.56,73022.0,-5.77,-6.43,-6.35,0,*5C
1507338161.86,48614,11.56,73020.8,-5.79,-6.43,-6.43,0,*54
1507338163.08,48615,11.56,73026.8,-5.77,-6.43,-6.43,0,*5B
1507338164.28,48616,11.56,73028.3,-5.79,-6.43,-6.43,0,*56
1507338165.48,48617,11.56,73028.5,-5.79,-6.43,-6.47,0,*53
1507338166.71,48618,11.56,73024.5,-5.77,-6.43,-6.43,0,*56
1507338167.93,48619,11.56,73020.8,-5.77,-6.43,-6.43,0,*57
1507338169.15,48620,11.56,73026.8,-5.77,-6.47,-6.43,0,*59
1507338170.35,48621,11.56,73026.0,-5.79,-6.43,-6.43,0,*52
1507338171.58,48622,11.5,73022.3,-5.77,-6.47,-6.43,0,*5B
1507338172.8,48623,11.56,73020.8,-5.77,-6.43,-6.43,0,*5E
1507338174.0,48624,11.56,73026.3,-5.79,-6.43,-6.35,0,*56
1507338175.2,48625,11.56,73024.3,-5.79,-6.43,-6.43,0,*56
1507338176.43,48626,11.56,73026.8,-5.77,-6.43,-6.43,0,*5B
1507338177.63,48627,11.56,73030.3,-5.79,-6.43,-6.43,0,*54
1507338178.85,48628,11.56,73028.8,-5.77,-6.43,-6.43,0,*55
1507338180.08,48629,11.56,73028.0,-5.77,-6.35,-6.35,0,*54
1507338181.28,48630,11.56,73026.0,-5.79,-6.35,-6.43,0,*53
1507338182.48,48631,11.56,73030.0,-5.79,-6.43,-6.35,0,*52
1507338183.69,48632,11.56,73028.0,-5.79,-6.43,-6.35,0,*51
1507338184.91,48633,11.5,73020.8,-5.77,-6.43,-6.35,0,*5E
1507338186.14,48634,11.56,73024.3,-5.77,-6.35,-6.35,0,*58
1507338187.37,48635,11.5,73026.5,-5.77,-6.35,-6.43,0,*58
1507338188.6,48636,11.56,73028.3,-5.77,-6.35,-6.35,0,*5A
1507338189.82,48637,11.56,73030.5,-5.77,-6.35,-6.35,0,*5B
1507338191.05,48638,11.56,73028.3,-5.77,-6.43,-6.35,0,*55
1507338192.28,48639,11.56,73030.5,-5.77,-6.35,-6.35,0,*55
1507338193.48,48640,11.5,73024.0,-5.79,-6.43,-6.35,0,*54
1507338194.68,48641,11.56,73030.8,-5.79,-6.35,-6.35,0,*54
1507338195.91,48642,11.56,73028.8,-5.77,-6.43,-6.43,0,*59
1507338197.13,48643,11.56,73032.0,-5.77,-6.35,-6.35,0,*58
1507338198.34,48644,11.56,73030.5,-5.79,-6.35,-6.35,0,*51
1507338199.55,48645,11.56,73034.3,-5.79,-6.35,-6.35,0,*50
1507338200.77,48646,11.56,73028.3,-5.77,-6.35,-6.35,0,*5D
1507338202.0,48647,11.5,73034.3,-5.77,-6.43,-6.35,0,*5D
1507338203.22,48648,11.56,73032.8,-5.77,-6.43,-6.35,0,*52
1507338204.45,48649,11.56,73030.3,-5.77,-6.43,-6.35,0,*53
1507338205.67,48650,11.56,73034.3,-5.77,-6.35,-6.35,0,*5A
1507338206.9,48651,11.56,73034.8,-5.77,-6.43,-6.35,0,*5A
1507338208.1,48652,11.56,73032.3,-5.79,-6.43,-6.43,0,*56
1507338209.32,48653,11.56,73034.0,-5.77,-6.43,-6.43,0,*59
1507338210.55,48654,11.56,73032.8,-5.77,-6.43,-6.47,0,*5A
1507338211.75,48655,11.56,73030.8,-5.79,-6.43,-6.47,0,*55
1507338212.97,48656,11.56,73026.0,-5.77,-6.43,-6.35,0,*5D
1507338214.18,48657,11.56,73030.5,-5.79,-6.43,-6.43,0,*53
1507338215.4,48658,11.56,73036.0,-5.77,-6.47,-6.47,0,*52
1507338216.62,48659,11.5,73028.8,-5.77,-6.47,-6.47,0,*53
1507338217.82,48660,11.56,73036.3,-5.79,-6.43,-6.43,0,*57
1507338219.04,48661,11.56,73034.8,-5.77,-6.43,-6.43,0,*58
1507338220.27,48662,11.56,73036.8,-5.77,-6.43,-6.43,0,*5B
1507338221.47,48663,11.56,73036.5,-5.79,-6.43,-6.43,0,*54
1507338222.67,48664,11.56,73042.5,-5.79,-6.43,-6.43,0,*53
1507338223.87,48665,11.5,73040.8,-5.79,-6.43,-6.43,0,*52
1507338225.1,48666,11.56,73042.0,-5.77,-6.43,-6.43,0,*5F
1507338226.32,48667,11.56,73042.0,-5.77,-6.47,-6.35,0,*5B
1507338227.54,48668,11.56,73036.3,-5.77,-6.47,-6.43,0,*55
1507338228.74,48669,11.56,73036.8,-5.79,-6.47,-6.43,0,*5A
1507338229.94,48670,11.56,73036.5,-5.79,-6.47,-6.43,0,*52
1507338231.14,48671,11.5,73032.0,-5.79,-6.47,-6.43,0,*53
1507338232.34,48672,11.56,73038.3,-5.79,-6.43,-6.47,0,*50
1507338233.54,48673,11.56,73034.8,-5.79,-6.43,-6.43,0,*55
1507338234.74,48674,11.5,73026.8,-5.79,-6.47,-6.47,0,*52
1507338235.93,48675,11.56,73020.0,-5.79,-6.47,-6.43,0,*57
1507338237.16,48676,11.56,73034.8,-5.77,-6.43,-6.47,0,*5A
1507338238.38,48677,11.56,73030.5,-5.77,-6.47,-6.43,0,*5B
1507338239.61,48678,11.56,73026.3,-5.77,-6.43,-6.47,0,*54
1507338240.8,48679,11.56,73024.8,-5.79,-6.47,-6.47,0,*5F
1507338242.03,48680,11.56,73022.8,-5.77,-6.47,-6.47,0,*57
1507338243.22,48681,11.56,73030.0,-5.79,-6.47,-6.43,0,*5C
1507338244.45,48682,11.5,73020.3,-5.77,-6.47,-6.47,0,*55
1507338245.65,48683,11.5,73016.5,-5.79,-6.43,-6.47,0,*5E
1507338246.87,48684,11.56,73016.5,-5.77,-6.55,-6.47,0,*50
1507338248.07,48685,11.56,73006.3,-5.79,-6.47,-6.43,0,*58
1507338249.29,48686,11.56,73012.3,-5.77,-6.47,-6.47,0,*51
1507338250.49,48687,11.5,73008.8,-5.79,-6.47,-6.43,0,*5A
1507338251.69,48688,11.56,73018.5,-5.79,-6.47,-6.47,0,*51
1507338252.89,48689,11.56,73018.3,-5.79,-6.43,-6.43,0,*50
1507338254.09,48690,11.56,73014.8,-5.79,-6.47,-6.47,0,*58
1507338255.29,48691,11.56,73012.3,-5.79,-6.47,-6.43,0,*5D
1507338256.51,48692,11.56,73014.3,-5.77,-6.43,-6.47,0,*50
1507338257.74,48693,11.56,73012.5,-5.77,-6.47,-6.43,0,*51
1507338258.94,48694,11.56,73016.8,-5.79,-6.47,-6.47,0,*5C
1507338260.13,48695,11.56,73020.0,-5.79,-6.47,-6.43,0,*59
1507338261.33,48696,11.5,73018.8,-5.79,-6.47,-6.47,0,*5E
1507338262.53,48697,11.5,73030.3,-5.79,-6.55,-6.47,0,*5C
1507338263.73,48698,11.56,73032.5,-5.79,-6.47,-6.43,0,*54
1507338264.93,48699,11.5,73028.8,-5.79,-6.47,-6.47,0,*51
1507338266.13,48700,11.56,73028.8,-5.79,-6.47,-6.47,0,*50
1507338267.33,48701,11.56,73030.8,-5.79,-6.47,-6.47,0,*51
1507338268.53,48702,11.56,73026.8,-5.79,-6.43,-6.47,0,*56
1507338269.73,48703,11.5,73026.5,-5.79,-6.47,-6.47,0,*53
1507338270.93,48704,11.56,73022.0,-5.79,-6.47,-6.47,0,*54
1507338272.13,48705,11.5,73018.5,-5.79,-6.47,-6.47,0,*55
1507338273.33,48706,11.56,73026.3,-5.79,-6.43,-6.47,0,*52
1507338274.53,48707,11.56,73028.5,-5.83,-6.51,-6.47,0,*55
1507338275.73,48708,11.56,73024.0,-5.83,-6.47,-6.51,0,*5A
1507338276.93,48709,11.56,73028.3,-5.83,-6.51,-6.47,0,*5B
1507338278.12,48710,11.56,73026.5,-5.83,-6.47,-6.47,0,*54
1507338279.32,48711,11.56,73024.3,-5.79,-6.47,-6.43,0,*54
1507338280.52,48712,11.56,73026.5,-5.79,-6.47,-6.47,0,*53
1507338281.72,48713,11.56,73028.3,-5.83,-6.47,-6.47,0,*57
1507338282.92,48714,11.56,73030.3,-5.83,-6.51,-6.47,0,*57
1507338284.12,48715,11.5,73022.5,-5.79,-6.47,-6.47,0,*54
1507338285.32,48716,11.56,73022.3,-5.79,-6.43,-6.47,0,*53
1507338286.52,48717,11.56,73016.8,-5.79,-6.43,-6.47,0,*52
1507338287.72,48718,11.56,73020.5,-5.79,-6.47,-6.47,0,*59
1507338288.92,48719,11.56,73030.0,-5.79,-6.43,-6.47,0,*5C
1507338290.12,48720,11.5,73024.3,-5.79,-6.47,-6.43,0,*56
1507338291.32,48721,11.56,73024.5,-5.79,-6.47,-6.43,0,*57
1507338292.54,48722,11.56,73024.8,-5.77,-6.47,-6.47,0,*5E
1507338293.74,48723,11.56,73032.8,-5.83,-6.43,-6.43,0,*54
1507338294.93,48724,11.5,73032.0,-5.83,-6.47,-6.47,0,*53
1507338296.13,48725,11.56,73032.5,-5.83,-6.51,-6.47,0,*55
1507338297.34,48726,11.5,73022.8,-5.79,-6.47,-6.51,0,*53
1507338298.53,48727,11.56,73018.5,-5.79,-6.47,-6.43,0,*51
1507338299.73,48728,11.56,73012.3,-5.83,-6.47,-6.51,0,*58
1507338300.93,48729,11.56,73018.3,-5.83,-6.51,-6.51,0,*5E
1507338302.13,48730,11.56,73014.3,-5.83,-6.51,-6.47,0,*51
1507338303.34,48731,11.56,73020.8,-5.83,-6.51,-6.51,0,*57
1507338304.54,48732,11.56,73022.0,-5.83,-6.51,-6.47,0,*53
1507338305.74,48733,11.56,73018.5,-5.83,-6.51,-6.47,0,*52
1507338306.94,48734,11.56,73014.8,-5.83,-6.51,-6.51,0,*52
1507338308.14,48735,11.56,73014.3,-5.79,-6.47,-6.43,0,*52
1507338309.34,48736,11.56,73010.8,-5.83,-6.51,-6.51,0,*50
1507338310.54,48737,11.56,73012.3,-5.83,-6.51,-6.51,0,*51
1507338311.77,48738,11.5,73014.8,-5.85,-6.51,-6.51,0,*58
1507338312.97,48739,11.56,73028.3,-5.83,-6.47,-6.47,0,*5F
1507338314.17,48740,11.56,73022.8,-5.83,-6.51,-6.47,0,*56
1507338315.37,48741,11.56,73026.0,-5.83,-6.51,-6.51,0,*50
1507338316.57,48742,11.5,73022.8,-5.83,-6.47,-6.47,0,*53
1507338317.77,48743,11.56,73020.8,-5.83,-6.51,-6.47,0,*55
1507338318.97,48744,11.5,73016.3,-5.83,-6.51,-6.51,0,*55
1507338320.17,48745,11.5,73018.0,-5.83,-6.51,-6.47,0,*53
1507338321.37,48746,11.5,73018.5,-5.83,-6.47,-6.51,0,*50
1507338322.57,48747,11.56,73018.3,-5.83,-6.51,-6.51,0,*56
1507338323.77,48748,11.5,73020.3,-5.83,-6.51,-6.47,0,*5E
1507338324.97,48749,11.5,73022.0,-5.83,-6.47,-6.47,0,*58
1507338326.17,48750,11.56,73024.3,-5.83,-6.51,-6.47,0,*57
1507338327.37,48751,11.56,73024.5,-5.83,-6.47,-6.51,0,*56
1507338328.57,48752,11.56,73028.3,-5.83,-6.51,-6.47,0,*55
1507338329.79,48753,11.56,73028.0,-5.85,-6.47,-6.47,0,*55
1507338330.99,48754,11.56,73030.5,-5.79,-6.47,-6.43,0,*55
1507338332.19,48755,11.5,73026.0,-5.83,-6.51,-6.47,0,*52
1507338333.41,48756,11.56,73028.3,-5.85,-6.47,-6.47,0,*50
1507338334.6,48757,11.56,73026.0,-5.83,-6.47,-6.51,0,*50
1507338335.8,48758,11.56,73028.3,-5.83,-6.47,-6.47,0,*58
1507338336.99,48759,11.56,73024.8,-5.83,-6.47,-6.47,0,*59
1507338338.2,48760,11.56,73026.3,-5.83,-6.51,-6.47,0,*54
1507338339.39,48761,11.56,73030.0,-5.83,-6.47,-6.47,0,*52
1507338340.61,48762,11.56,73026.0,-5.85,-6.47,-6.51,0,*50
1507338341.81,48763,11.56,73026.0,-5.83,-6.47,-6.47,0,*50
1507338343.0,48764,11.5,73024.8,-5.83,-6.47,-6.47,0,*57
1507338344.2,48765,11.5,73024.0,-5.83,-6.47,-6.51,0,*51
1507338345.42,48766,11.5,73026.5,-5.85,-6.47,-6.51,0,*54
1507338346.62,48767,11.56,73024.5,-5.83,-6.47,-6.51,0,*53
1507338347.81,48768,11.56,73026.8,-5.83,-6.47,-6.51,0,*5C
1507338349.01,48769,11.56,73030.0,-5.83,-6.47,-6.51,0,*5D
1507338350.21,48770,11.56,73026.5,-5.83,-6.51,-6.47,0,*55
1507338351.41,48771,11.56,73024.5,-5.83,-6.47,-6.47,0,*53
1507338352.61,48772,11.56,73024.8,-5.83,-6.51,-6.47,0,*57
1507338353.83,48773,11.5,73022.3,-5.85,-6.47,-6.47,0,*57
1507338355.02,48774,11.56,73022.3,-5.83,-6.51,-6.39,0,*58
1507338356.22,48775,11.56,73024.3,-5.83,-6.39,-6.47,0,*5E
1507338357.42,48776,11.56,73024.3,-5.83,-6.47,-6.47,0,*54
1507338358.61,48777,11.56,73028.3,-5.83,-6.47,-6.47,0,*55
1507338359.81,48778,11.5,73028.0,-5.83,-6.47,-6.47,0,*5A
1507338361.03,48779,11.56,73030.0,-5.85,-6.47,-6.47,0,*5D
1507338362.22,48780,11.56,73032.5,-5.83,-6.47,-6.47,0,*5D
1507338363.42,48781,11.56,73030.3,-5.83,-6.51,-6.47,0,*5B
1507338364.65,48782,11.56,73032.8,-5.85,-6.51,-6.47,0,*5E
1507338365.85,48783,11.56,73032.8,-5.83,-6.51,-6.39,0,*50
1507338367.04,48784,11.56,73034.3,-5.83,-6.47,-6.47,0,*59
1507338368.24,48785,11.56,73032.3,-5.83,-6.47,-6.47,0,*58
1507338369.43,48786,11.56,73030.3,-5.83,-6.47,-6.47,0,*5B
1507338370.63,48787,11.56,73030.5,-5.83,-6.47,-6.47,0,*5A
1507338371.82,48788,11.56,73030.3,-5.83,-6.47,-6.39,0,*5C
1507338373.02,48789,11.56,73034.5,-5.83,-6.51,-6.47,0,*53
1507338374.22,48790,11.56,73032.5,-5.83,-6.47,-6.47,0,*5C
1507338375.42,48791,11.56,73030.0,-5.83,-6.47,-6.47,0,*5D
1507338376.64,48792,11.56,73028.8,-5.85,-6.51,-6.47,0,*5F
1507338377.86,48793,11.56,73030.5,-5.85,-6.47,-6.47,0,*59
1507338379.05,48794,11.56,73028.8,-5.83,-6.39,-6.39,0,*58
1507338380.27,48795,11.56,73030.3,-5.85,-6.39,-6.47,0,*56
1507338381.46,48796,11.56,73030.8,-5.83,-6.47,-6.47,0,*5A
1507338382.66,48797,11.56,73030.3,-5.83,-6.47,-6.47,0,*5B
1507338383.88,48798,11.56,73032.0,-5.85,-6.47,-6.47,0,*52
1507338385.08,48799,11.56,73034.5,-5.83,-6.51,-6.47,0,*52
1507338386.28,48800,11.5,73034.3,-5.83,-6.39,-6.47,0,*53
1507338387.47,48801,11.56,73034.0,-5.83,-6.39,-6.47,0,*52
1507338388.67,48802,11.56,73034.8,-5.83,-6.39,-6.47,0,*51
1507338389.86,48803,11.5,73028.3,-5.83,-6.47,-6.47,0,*59
1507338391.08,48804,11.5,73032.5,-5.85,-6.39,-6.47,0,*51
1507338392.27,48805,11.56,73034.0,-5.83,-6.47,-6.47,0,*5F
1507338393.49,48806,11.5,73034.3,-5.85,-6.39,-6.51,0,*54
1507338394.69,48807,11.5,73032.5,-5.83,-6.47,-6.47,0,*5D
1507338395.88,48808,11.56,73036.5,-5.83,-6.47,-6.39,0,*5B
1507338397.07,48809,11.56,73038.3,-5.83,-6.39,-6.39,0,*53
1507338398.26,48810,11.56,73038.0,-5.83,-6.39,-6.39,0,*5B
1507338399.48,48811,11.56,73038.8,-5.85,-6.47,-6.39,0,*55
1507338400.67,48812,11.56,73038.8,-5.83,-6.47,-6.47,0,*59
1507338401.87,48813,11.56,73036.8,-5.83,-6.47,-6.47,0,*58
1507338403.09,48814,11.56,73040.3,-5.85,-6.47,-6.39,0,*50
1507338404.31,48815,11.56,73046.3,-5.85,-6.47,-6.47,0,*58
1507338405.52,48816,11.5,73040.5,-5.85,-6.47,-6.39,0,*52
1507338406.71,48817,11.56,73048.0,-5.83,-6.47,-6.39,0,*55
1507338407.91,48818,11.56,73050.3,-5.83,-6.47,-6.39,0,*5A
1507338409.12,48819,11.56,73046.8,-5.85,-6.47,-6.39,0,*5D
1507338410.34,48820,11.56,73046.5,-5.85,-6.39,-6.39,0,*5E
1507338411.53,48821,11.5,73046.0,-5.83,-6.47,-6.39,0,*50
1507338412.72,48822,11.56,73050.3,-5.83,-6.47,-6.51,0,*5D
1507338413.92,48823,11.56,73046.0,-5.83,-6.47,-6.47,0,*5B
1507338415.11,48824,11.56,73046.3,-5.83,-6.47,-6.47,0,*5C
1507338416.31,48825,11.56,73040.3,-5.83,-6.47,-6.47,0,*5D
1507338417.53,48826,11.56,73046.5,-5.85,-6.47,-6.39,0,*51
1507338418.75,48827,11.56,73040.3,-5.85,-6.47,-6.51,0,*5E
1507338419.94,48828,11.56,73040.3,-5.83,-6.47,-6.51,0,*57
1507338421.16,48829,11.56,73044.0,-5.85,-6.47,-6.47,0,*57
1507338422.36,48830,11.56,73046.0,-5.83,-6.51,-6.51,0,*59
1507338423.56,48831,11.56,73036.0,-5.83,-6.47,-6.47,0,*58
1507338424.76,48832,11.5,73034.3,-5.83,-6.47,-6.51,0,*5C
1507338425.95,48833,11.56,73036.3,-5.83,-6.47,-6.47,0,*5A
1507338427.17,48834,11.5,73036.8,-5.85,-6.47,-6.47,0,*5B
1507338428.4,48835,11.56,73036.8,-5.85,-6.51,-6.47,0,*5D
1507338429.6,48836,11.56,73036.8,-5.83,-6.51,-6.51,0,*5F
1507338430.8,48837,11.56,73036.0,-5.83,-6.51,-6.47,0,*59
1507338432.02,48838,11.56,73042.0,-5.85,-6.47,-6.47,0,*57
1507338433.24,48839,11.56,73042.5,-5.85,-6.47,-6.51,0,*51
1507338434.44,48840,11.56,73036.3,-5.83,-6.59,-6.47,0,*51
1507338435.66,48841,11.56,73036.3,-5.85,-6.51,-6.47,0,*5E
1507338436.86,48842,11.56,73032.8,-5.83,-6.47,-6.51,0,*5B
1507338438.09,48843,11.56,73028.0,-5.85,-6.51,-6.47,0,*5C
1507338439.29,48844,11.56,73030.5,-5.83,-6.51,-6.47,0,*5D
1507338440.49,48845,11.56,73028.5,-5.83,-6.51,-6.47,0,*5C
1507338441.72,48846,11.5,73028.0,-5.85,-6.51,-6.47,0,*59
1507338442.94,48847,11.56,73034.3,-5.85,-6.51,-6.51,0,*5F
1507338444.17,48848,11.56,73038.5,-5.85,-6.51,-6.51,0,*50
1507338445.37,48849,11.5,73034.3,-5.83,-6.59,-6.51,0,*5F
1507338446.57,48850,11.5,73034.5,-5.83,-6.51,-6.51,0,*5F
1507338447.79,48851,11.56,73036.8,-5.85,-6.47,-6.51,0,*5F
1507338449.01,48852,11.56,73038.3,-5.85,-6.51,-6.51,0,*5B
1507338450.22,48853,11.56,73038.0,-5.83,-6.51,-6.51,0,*5C
1507338451.41,48854,11.56,73038.5,-5.83,-6.59,-6.47,0,*54
1507338452.64,48855,11.5,73032.8,-5.85,-6.59,-6.51,0,*54
1507338453.84,48856,11.5,73038.0,-5.83,-6.51,-6.51,0,*59
1507338455.07,48857,11.56,73036.3,-5.85,-6.51,-6.51,0,*5E
1507338456.29,48858,11.56,73038.8,-5.85,-6.59,-6.51,0,*59
1507338457.51,48859,11.5,73034.5,-5.85,-6.51,-6.51,0,*50
1507338458.74,48860,11.56,73034.3,-5.85,-6.51,-6.47,0,*5D
1507338459.97,48861,11.56,73032.3,-5.85,-6.51,-6.51,0,*5B
1507338461.19,48862,11.56,73036.8,-5.85,-6.59,-6.47,0,*57
1507338462.41,48863,11.56,73036.8,-5.85,-6.51,-6.51,0,*59
1507338463.64,48864,11.56,73036.5,-5.85,-6.51,-6.47,0,*59
1507338464.86,48865,11.5,73030.8,-5.85,-6.47,-6.47,0,*5F
1507338466.06,48866,11.5,73030.0,-5.83,-6.59,-6.47,0,*55
1507338467.28,48867,11.56,73026.3,-5.85,-6.59,-6.51,0,*55
1507338468.51,48868,11.56,73024.8,-5.85,-6.51,-6.51,0,*52
1507338469.73,48869,11.56,73014.5,-5.85,-6.47,-6.51,0,*54
1507338470.95,48870,11.5,73010.5,-5.85,-6.47,-6.51,0,*5C
1507338472.17,48871,11.56,73008.5,-5.85,-6.51,-6.51,0,*5A
1507338473.4,48872,11.56,73008.8,-5.85,-6.51,-6.47,0,*5E
1507338474.62,48873,11.5,73008.5,-5.85,-6.51,-6.51,0,*58
1507338475.85,48874,11.56,73010.8,-5.85,-6.51,-6.47,0,*58
1507338477.07,48875,11.56,73012.0,-5.85,-6.51,-6.47,0,*59
1507338478.3,48876,11.56,73014.3,-5.85,-6.51,-6.47,0,*5A
1507338479.53,48877,11.56,73010.0,-5.85,-6.51,-6.51,0,*5C
1507338480.73,48878,11.56,73012.8,-5.87,-6.55,-6.55,0,*51
1507338481.93,48879,11.56,73018.0,-5.87,-6.55,-6.51,0,*54
1507338483.13,48880,11.56,73014.3,-5.87,-6.51,-6.55,0,*52
1507338484.35,48881,11.56,73020.0,-5.87,-6.63,-6.51,0,*56
1507338485.55,48882,11.56,73022.8,-5.87,-6.55,-6.51,0,*50
1507338486.75,48883,11.5,73022.8,-5.87,-6.55,-6.55,0,*55
1507338487.96,48884,11.56,73032.5,-5.87,-6.55,-6.51,0,*56
1507338489.16,48885,11.5,73030.0,-5.87,-6.51,-6.51,0,*53
1507338490.36,48886,11.5,73030.8,-5.87,-6.55,-6.55,0,*50
1507338491.56,48887,11.56,73036.3,-5.87,-6.55,-6.51,0,*55
1507338492.77,48888,11.56,73040.3,-5.87,-6.55,-6.51,0,*5A
1507338493.97,48889,11.56,73040.5,-5.87,-6.55,-6.55,0,*5F
1507338495.17,48890,11.56,73036.3,-5.87,-6.51,-6.51,0,*57
1507338496.38,48891,11.5,73034.5,-5.87,-6.51,-6.55,0,*52
1507338497.6,48892,11.56,73032.3,-5.85,-6.51,-6.47,0,*50
1507338498.82,48893,11.5,73028.8,-5.85,-6.47,-6.47,0,*56
1507338500.04,48894,11.56,73032.8,-5.85,-6.47,-6.47,0,*51
1507338501.27,48895,11.56,73032.5,-5.85,-6.51,-6.47,0,*57